sat.trackr.live / text

‹ back to catalog

KOYOH

NORAD 58464 · 2023-185C

PAYLOAD ACTIVE UNKNOWN

§ Identity

Operator
Country
JPN
Launch date
2023-12-01
Launch site
AFWTR
Launch vehicle
Mass (kg)
RCS (m²)

External: N2YO · Heavens-Above · Gunter

§ Orbital elements

Epoch: 2026-05-25T05:24:23.596704Z

Period
94.87 min
Inclination
97.5320°
Eccentricity
0.0007558
Mean motion
15.17898162 rev/d
Perigee alt
507.0 km
Apogee alt
517.4 km
Semi-major
6,890.3 km
B*
2.8608e-4
RAAN
217.5613°
Arg perigee
38.6186°
Mean anomaly
321.5587°
Rev number
13,664

§ Raw data

KOYOH1 58464U 23185C   26145.22527311  .00005736  00000+0  28608-3 0  99942 58464  97.5320 217.5613 0007558  38.6186 321.5587 15.17898162136646

JSON: /api/v1/satellites/58464 · /tle

For live sub-satellite position, see the globe view (requires WebGL).

§ Visibility from observer

Set your observer location to see the next 7 days of passes ≥ 10°. The values pass through the URL so the page stays shareable.

No JS? Fill the form by hand. The geolocation button needs JavaScript.